YB2YEN-13 Weather Reports


Display with metric or nautical units.
time (UTC)temp
F
wind
direction
speed
MPH
gust
MPH
rain 1hr
in
rain 24hr
in
rain mn
in
humidity
%
barometer
mb
20260506073030 93 0 0.0 0.0 0.00 0.00 0.00 70 975.0
20260506072508 93 0 0.0 0.0 0.00 0.00 0.00 68 975.0
20260506071946 92 0 0.0 0.0 0.00 0.00 0.00 68 975.0
20260506071424 94 0 0.0 0.0 0.00 0.00 0.00 66 975.0
20260506070902 94 0 0.0 0.0 0.00 0.00 0.00 66 975.0
20260506070340 93 0 0.0 0.0 0.00 0.00 0.00 68 975.0
20260506062044 92 0 0.0 0.0 0.00 0.00 0.00 76 976.0
20260506061522 91 0 0.0 0.0 0.00 0.00 0.00 85 976.0
20260506061000 90 0 0.0 0.0 0.00 0.00 0.00 87 976.0
20260506060438 88 0 0.0 0.0 0.00 0.00 0.00 89 976.0
20260506051058 93 0 0.0 0.0 0.00 0.00 0.00 76 977.0
20260506050535 91 0 0.0 0.0 0.00 0.00 0.00 71 977.0
20260506044929 91 0 0.0 0.0 0.00 0.00 0.00 77 977.0
20260506044407 91 0 0.0 0.0 0.00 0.00 0.00 83 977.0
20260506043845 90 0 0.0 0.0 0.00 0.00 0.00 85 977.0
20260506043323 91 0 0.0 0.0 0.00 0.00 0.00 81 977.0
20260506042801 91 0 0.0 0.0 0.00 0.00 0.00 72 977.0
20260506042239 91 0 0.0 0.0 0.00 0.00 0.00 79 977.0
20260506041717 92 0 0.0 0.0 0.00 0.00 0.00 74 977.0
20260506041155 91 0 0.0 0.0 0.00 0.00 0.00 79 978.0
20260506040633 92 0 0.0 0.0 0.00 0.00 0.00 74 978.0
20260506040111 92 0 0.0 0.0 0.00 0.00 0.00 72 978.0
20260506035549 93 0 0.0 0.0 0.00 0.00 0.00 76 978.0
20260506035028 91 0 0.0 0.0 0.00 0.00 0.00 82 978.0
20260506034505 91 0 0.0 0.0 0.00 0.00 0.00 82 978.0
20260506033943 92 0 0.0 0.0 0.00 0.00 0.00 80 978.0
20260506033421 92 0 0.0 0.0 0.00 0.00 0.00 74 978.0
20260506032859 93 0 0.0 0.0 0.00 0.00 0.00 86 978.0
20260506032337 91 0 0.0 0.0 0.00 0.00 0.00 86 978.0
20260506031815 91 0 0.0 0.0 0.00 0.00 0.00 78 978.0
20260506031253 90 0 0.0 0.0 0.00 0.00 0.00 87 979.0
20260506030731 93 0 0.0 0.0 0.00 0.00 0.00 75 979.0
20260506030209 89 0 0.0 0.0 0.00 0.00 0.00 91 979.0
20260506025647 89 0 0.0 0.0 0.00 0.00 0.00 88 979.0
20260506025125 89 0 0.0 0.0 0.00 0.00 0.00 96 979.0
20260506024603 89 0 0.0 0.0 0.00 0.00 0.00 99 979.0
20260506024041 88 0 0.0 0.0 0.00 0.00 0.00 96 979.0
20260506023556 88 0 0.0 0.0 0.00 0.00 0.00 97 979.0
20260506023034 88 0 0.0 0.0 0.00 0.00 0.00 97 979.0
20260506022512 88 0 0.0 0.0 0.00 0.00 0.00 93 979.0
20260506021950 89 0 0.0 0.0 0.00 0.00 0.00 93 979.0
20260506021428 87 0 0.0 0.0 0.00 0.00 0.00 98 979.0
20260506020906 87 0 0.0 0.0 0.00 0.00 0.00 98 979.0
20260506020344 88 0 0.0 0.0 0.00 0.00 0.00 95 979.0
20260506015822 87 0 0.0 0.0 0.00 0.00 0.00 99 979.0
20260506015300 87 0 0.0 0.0 0.00 0.00 0.00 99 979.0
20260506014738 87 0 0.0 0.0 0.00 0.00 0.00 99 979.0
20260506014216 84 0 0.0 0.0 0.00 0.00 0.00 99 979.0
20260506013654 85 0 0.0 0.0 0.00 0.00 0.00 99 979.0
20260506013132 87 0 0.0 0.0 0.00 0.00 0.00 99 979.0
20260506012610 86 0 0.0 0.0 0.00 0.00 0.00 99 979.0
20260506012048 84 0 0.0 0.0 0.00 0.00 0.00 99 979.0
20260506011526 85 0 0.0 0.0 0.00 0.00 0.00 99 979.0
20260506011004 83 0 0.0 0.0 0.00 0.00 0.00 99 979.0
20260506010442 83 0 0.0 0.0 0.00 0.00 0.00 99 979.0
20260506005920 83 0 0.0 0.0 0.00 0.00 0.00 99 979.0
20260506005358 83 0 0.0 0.0 0.00 0.00 0.00 99 979.0
20260506004836 81 0 0.0 0.0 0.00 0.00 0.00 99 979.0
20260506004314 81 0 0.0 0.0 0.00 0.00 0.00 99 979.0
20260506003752 81 0 0.0 0.0 0.00 0.00 0.00 99 979.0
20260506003230 81 0 0.0 0.0 0.00 0.00 0.00 99 979.0
20260506002708 80 0 0.0 0.0 0.00 0.00 0.00 99 979.0
20260506002146 80 0 0.0 0.0 0.00 0.00 0.00 99 979.0
20260506001624 80 0 0.0 0.0 0.00 0.00 0.00 99 979.0
20260506001102 80 0 0.0 0.0 0.00 0.00 0.00 99 979.0
20260506000540 79 0 0.0 0.0 0.00 0.00 0.00 99 979.0
20260506000018 78 0 0.0 0.0 0.00 0.00 0.00 99 979.0
20260505235546 78 0 0.0 0.0 0.00 0.00 0.00 99 979.0
20260505235024 78 0 0.0 0.0 0.00 0.00 0.00 99 979.0
20260505234502 78 0 0.0 0.0 0.00 0.00 0.00 99 979.0
20260505233940 78 0 0.0 0.0 0.00 0.00 0.00 99 979.0
20260505233418 77 0 0.0 0.0 0.00 0.00 0.00 99 979.0
20260505232856 76 0 0.0 0.0 0.00 0.00 0.00 99 979.0
20260505232334 76 0 0.0 0.0 0.00 0.00 0.00 99 978.0
20260505231812 76 0 0.0 0.0 0.00 0.00 0.00 99 978.0
20260505231250 76 0 0.0 0.0 0.00 0.00 0.00 99 979.0
20260505230728 76 0 0.0 0.0 0.00 0.00 0.00 99 978.0
20260505230206 75 0 0.0 0.0 0.00 0.00 0.00 99 978.0
20260505225644 76 0 0.0 0.0 0.00 0.00 0.00 99 978.0
20260505225122 76 0 0.0 0.0 0.00 0.00 0.00 99 978.0
20260505224600 76 0 0.0 0.0 0.00 0.00 0.00 99 978.0
20260505224038 76 0 0.0 0.0 0.00 0.00 0.00 99 978.0
20260505223516 75 0 0.0 0.0 0.00 0.00 0.00 99 978.0
20260505222954 77 0 0.0 0.0 0.00 0.00 0.00 99 978.0
20260505222432 77 0 0.0 0.0 0.00 0.00 0.00 99 978.0
20260505221910 77 0 0.0 0.0 0.00 0.00 0.00 99 978.0
20260505221348 77 0 0.0 0.0 0.00 0.00 0.00 99 978.0
20260505220826 77 0 0.0 0.0 0.00 0.00 0.00 99 978.0
20260505220304 77 0 0.0 0.0 0.00 0.00 0.00 99 978.0
20260505215742 76 0 0.0 0.0 0.00 0.00 0.00 99 978.0
20260505215220 77 0 0.0 0.0 0.00 0.00 0.00 99 978.0
20260505214658 77 0 0.0 0.0 0.00 0.00 0.00 99 978.0
20260505214136 77 0 0.0 0.0 0.00 0.00 0.00 99 978.0
20260505213614 77 0 0.0 0.0 0.00 0.00 0.00 99 978.0
20260505213052 77 0 0.0 0.0 0.00 0.00 0.00 99 978.0
20260505212530 76 0 0.0 0.0 0.00 0.00 0.00 99 978.0
20260505212008 77 0 0.0 0.0 0.00 0.00 0.00 99 977.0
20260505211446 78 0 0.0 0.0 0.00 0.00 0.00 99 977.0
20260505210924 77 0 0.0 0.0 0.00 0.00 0.00 99 978.0
20260505210402 78 0 0.0 0.0 0.00 0.00 0.00 99 978.0
20260505205840 77 0 0.0 0.0 0.00 0.00 0.00 99 978.0
20260505205318 78 0 0.0 0.0 0.00 0.00 0.00 99 978.0
20260505204755 77 0 0.0 0.0 0.00 0.00 0.00 99 978.0
20260505204233 78 0 0.0 0.0 0.00 0.00 0.00 99 978.0
20260505203711 78 0 0.0 0.0 0.00 0.00 0.00 99 978.0
20260505203149 79 0 0.0 0.0 0.00 0.00 0.00 99 978.0
20260505202627 78 0 0.0 0.0 0.00 0.00 0.00 99 978.0
20260505202105 78 0 0.0 0.0 0.00 0.00 0.00 99 978.0
20260505201543 79 0 0.0 0.0 0.00 0.00 0.00 99 978.0
20260505201021 78 0 0.0 0.0 0.00 0.00 0.00 99 978.0
20260505200459 79 0 0.0 0.0 0.00 0.00 0.00 99 978.0
20260505195937 78 0 0.0 0.0 0.00 0.00 0.00 99 978.0
20260505195415 79 0 0.0 0.0 0.00 0.00 0.00 99 978.0
20260505194853 79 0 0.0 0.0 0.00 0.00 0.00 99 978.0
20260505194331 79 0 0.0 0.0 0.00 0.00 0.00 99 978.0
20260505193809 78 0 0.0 0.0 0.00 0.00 0.00 99 978.0
20260505193247 79 0 0.0 0.0 0.00 0.00 0.00 99 978.0
20260505192725 79 0 0.0 0.0 0.00 0.00 0.00 99 978.0
20260505192203 79 0 0.0 0.0 0.00 0.00 0.00 99 978.0
20260505191641 79 0 0.0 0.0 0.00 0.00 0.00 99 978.0
20260505191119 78 0 0.0 0.0 0.00 0.00 0.00 99 978.0
20260505190557 78 0 0.0 0.0 0.00 0.00 0.00 99 978.0
20260505190035 78 0 0.0 0.0 0.00 0.00 0.00 99 978.0
20260505185513 79 0 0.0 0.0 0.00 0.00 0.00 99 978.0
20260505184951 79 0 0.0 0.0 0.00 0.00 0.00 99 978.0
20260505184429 80 0 0.0 0.0 0.00 0.00 0.00 99 978.0
20260505183907 79 0 0.0 0.0 0.00 0.00 0.00 99 978.0
20260505183345 79 0 0.0 0.0 0.00 0.00 0.00 99 978.0
20260505182823 80 0 0.0 0.0 0.00 0.00 0.00 99 978.0
20260505182301 80 0 0.0 0.0 0.00 0.00 0.00 99 978.0
20260505181739 79 0 0.0 0.0 0.00 0.00 0.00 99 978.0
20260505181217 80 0 0.0 0.0 0.00 0.00 0.00 99 978.0
20260505180655 80 0 0.0 0.0 0.00 0.00 0.00 99 978.0
20260505180133 80 0 0.0 0.0 0.00 0.00 0.00 99 978.0
20260505175611 80 0 0.0 0.0 0.00 0.00 0.00 99 978.0
20260505175049 80 0 0.0 0.0 0.00 0.00 0.00 99 978.0
20260505174527 80 0 0.0 0.0 0.00 0.00 0.00 99 978.0
20260505174005 80 0 0.0 0.0 0.00 0.00 0.00 99 978.0
20260505173443 80 0 0.0 0.0 0.00 0.00 0.00 99 978.0
20260505172921 80 0 0.0 0.0 0.00 0.00 0.00 99 978.0
20260505172359 80 0 0.0 0.0 0.00 0.00 0.00 99 979.0
20260505171837 80 0 0.0 0.0 0.00 0.00 0.00 99 979.0
20260505171315 80 0 0.0 0.0 0.00 0.00 0.00 99 979.0
20260505170753 80 0 0.0 0.0 0.00 0.00 0.00 99 979.0
20260505170231 80 0 0.0 0.0 0.00 0.00 0.00 99 979.0
20260505165709 80 0 0.0 0.0 0.00 0.00 0.00 99 979.0
20260505165147 80 0 0.0 0.0 0.00 0.00 0.00 99 979.0
20260505164625 80 0 0.0 0.0 0.00 0.00 0.00 99 979.0
20260505164103 79 0 0.0 0.0 0.00 0.00 0.00 99 979.0
20260505163541 80 0 0.0 0.0 0.00 0.00 0.00 99 979.0
20260505163019 80 0 0.0 0.0 0.00 0.00 0.00 99 979.0
20260505162457 80 0 0.0 0.0 0.00 0.00 0.00 99 979.0
20260505161935 80 0 0.0 0.0 0.00 0.00 0.00 99 979.0
20260505161413 80 0 0.0 0.0 0.00 0.00 0.00 99 979.0
20260505160851 80 0 0.0 0.0 0.00 0.00 0.00 99 979.0
20260505160329 80 0 0.0 0.0 0.00 0.00 0.00 99 979.0
20260505153116 80 0 0.0 0.0 0.00 0.00 0.00 99 979.0
20260505152555 80 0 0.0 0.0 0.00 0.00 0.00 99 979.0
20260505152033 81 0 0.0 0.0 0.00 0.00 0.00 99 979.0
20260505151511 81 0 0.0 0.0 0.00 0.00 0.00 99 979.0
20260505150949 80 0 0.0 0.0 0.00 0.00 0.00 99 979.0
20260505150427 81 0 0.0 0.0 0.00 0.00 0.00 99 979.0
20260505140525 81 0 0.0 0.0 0.00 0.00 0.00 99 979.0
20260505125017 82 0 0.0 0.0 0.00 0.00 0.00 99 979.0
20260505124455 83 0 0.0 0.0 0.00 0.00 0.00 99 979.0
20260505123933 82 0 0.0 0.0 0.00 0.00 0.00 99 979.0
20260505123410 82 0 0.0 0.0 0.00 0.00 0.00 99 979.0
20260505122848 82 0 0.0 0.0 0.00 0.00 0.00 99 979.0
20260505122326 83 0 0.0 0.0 0.00 0.00 0.00 99 979.0
20260505121804 82 0 0.0 0.0 0.00 0.00 0.00 99 978.0
20260505121242 83 0 0.0 0.0 0.00 0.00 0.00 99 978.0
20260505120721 82 0 0.0 0.0 0.00 0.00 0.00 99 978.0
20260505120158 82 0 0.0 0.0 0.00 0.00 0.00 99 978.0
20260505115636 83 0 0.0 0.0 0.00 0.00 0.00 99 978.0
20260505115114 83 0 0.0 0.0 0.00 0.00 0.00 99 978.0
20260505114552 83 0 0.0 0.0 0.00 0.00 0.00 99 978.0
20260505114030 83 0 0.0 0.0 0.00 0.00 0.00 99 978.0
20260505113508 83 0 0.0 0.0 0.00 0.00 0.00 99 978.0
20260505112946 83 0 0.0 0.0 0.00 0.00 0.00 99 977.0
20260505112424 83 0 0.0 0.0 0.00 0.00 0.00 99 977.0
20260505111902 84 0 0.0 0.0 0.00 0.00 0.00 99 977.0
20260505111340 84 0 0.0 0.0 0.00 0.00 0.00 99 977.0
20260505110818 84 0 0.0 0.0 0.00 0.00 0.00 99 977.0
20260505110256 84 0 0.0 0.0 0.00 0.00 0.00 99 977.0
20260505102000 85 0 0.0 0.0 0.00 0.00 0.00 99 977.0
20260505101438 85 0 0.0 0.0 0.00 0.00 0.00 99 977.0
20260505100916 86 0 0.0 0.0 0.00 0.00 0.00 99 976.0
20260505100354 85 0 0.0 0.0 0.00 0.00 0.00 99 976.0
20260505095832 86 0 0.0 0.0 0.00 0.00 0.00 99 976.0
20260505095310 86 0 0.0 0.0 0.00 0.00 0.00 99 976.0
20260505094748 86 0 0.0 0.0 0.00 0.00 0.00 99 976.0
20260505094226 86 0 0.0 0.0 0.00 0.00 0.00 99 976.0
20260505093704 86 0 0.0 0.0 0.00 0.00 0.00 99 976.0
20260505093142 86 0 0.0 0.0 0.00 0.00 0.00 99 976.0
20260505092620 87 0 0.0 0.0 0.00 0.00 0.00 99 976.0
20260505092058 87 0 0.0 0.0 0.00 0.00 0.00 96 976.0
20260505091536 88 0 0.0 0.0 0.00 0.00 0.00 95 976.0
20260505091014 87 0 0.0 0.0 0.00 0.00 0.00 93 976.0
20260505090452 88 0 0.0 0.0 0.00 0.00 0.00 91 976.0
20260505085930 88 0 0.0 0.0 0.00 0.00 0.00 91 976.0
20260505085408 88 0 0.0 0.0 0.00 0.00 0.00 90 976.0
20260505084846 89 0 0.0 0.0 0.00 0.00 0.00 89 976.0
20260505084325 89 0 0.0 0.0 0.00 0.00 0.00 88 976.0
20260505083802 89 0 0.0 0.0 0.00 0.00 0.00 83 976.0
20260505083240 89 0 0.0 0.0 0.00 0.00 0.00 90 976.0
20260505082718 90 0 0.0 0.0 0.00 0.00 0.00 85 975.0
20260505082156 91 0 0.0 0.0 0.00 0.00 0.00 77 975.0
20260505081634 91 0 0.0 0.0 0.00 0.00 0.00 73 975.0
20260505081112 91 0 0.0 0.0 0.00 0.00 0.00 72 976.0
20260505080550 93 0 0.0 0.0 0.00 0.00 0.00 73 976.0